Location: Bemmer
(51.5498°N, 5.6249°E)
Time: 13:17:01
(UTC+00:00)

Cosmos 2084 Rocket - Pass Details

Date: 03 March 2021
Orbit: 528 x 652 km, 62.8° (Epoch: 10 April)

Event Time Altitude Azimuth Distance (km) Brightness Sun altitude
Rises 18:22:35 0° 312° (NW) 2,794 7.8 -10.3°
Reaches altitude 10° 18:24:49 10° 308° (NW) 1,912 7.0 -10.6°
Maximum altitude 18:29:03 59° 230° (SW) 699 4.1 -11.3°
Drops below altitude 10° 18:33:28 10° 151° (SSE) 1,978 5.8 -12.0°
Enters shadow 18:35:02 - 148° (SSE) 2,596 6.4 -12.2°
